This is the latest recevied weather packets stored in our database for station/object IK6IHU-3. If no packets are shown the sender has not sent any weather packets the latest 1 day(s).
| Time | Temp. | Humidity | Pressure | Rain* | Wind** | Luminosity | Snow |
|---|---|---|---|---|---|---|---|
| 1777968142 | 16.11° C | 63% | 1014.7 hPa | 0 mm | 0 m/s | 0 W/m² | - |
| 1777968083 | 16.11° C | 63% | 1014.7 hPa | 0 mm | 0.89 m/s, 281° | 0 W/m² | - |
| 1777968023 | 15.56° C | 62% | 1014.7 hPa | 0 mm | 1.34 m/s, 276° | 0 W/m² | - |
| 1777967963 | 15.56° C | 62% | 1014.7 hPa | 0 mm | 1.34 m/s, 264° | 0 W/m² | - |
| 1777967902 | 16.11° C | 63% | 1014.6 hPa | 0 mm | 0.89 m/s, 250° | 0 W/m² | - |
| 1777967843 | 15.56° C | 61% | 1014.6 hPa | 0 mm | 0.89 m/s, 228° | 0 W/m² | - |
| 1777967783 | 15.56° C | 62% | 1014.5 hPa | 0 mm | 0.89 m/s, 193° | 0 W/m² | - |
| 1777967723 | 15.56° C | 63% | 1014.7 hPa | 0 mm | 0.45 m/s, 170° | 0 W/m² | - |
| 1777967662 | 15.56° C | 63% | 1014.6 hPa | 0 mm | 0.45 m/s, 154° | 0 W/m² | - |
| 1777967603 | 15.56° C | 63% | 1014.6 hPa | 0 mm | 0.45 m/s, 145° | 0 W/m² | - |
| 1777967543 | 16.11° C | 65% | 1014.5 hPa | 0 mm | 0.89 m/s, 136° | 0 W/m² | - |
| 1777967482 | 16.11° C | 64% | 1014.6 hPa | 0 mm | 0.45 m/s, 127° | 0 W/m² | - |
| 1777967422 | 15.56° C | 63% | 1014.6 hPa | 0 mm | 0.89 m/s, 120° | 0 W/m² | - |
| 1777967362 | 16.11° C | 64% | 1014.6 hPa | 0 mm | 0.45 m/s, 108° | 0 W/m² | - |
| 1777967302 | 16.11° C | 64% | 1014.9 hPa | 0 mm | 0.45 m/s, 99° | 0 W/m² | - |
| 1777967242 | 16.11° C | 64% | 1014.5 hPa | 0 mm | 0.45 m/s, 88° | 0 W/m² | - |
| 1777967182 | 16.11° C | 64% | 1014.6 hPa | 0 mm | 0.45 m/s, 72° | 0 W/m² | - |
| 1777967123 | 16.11° C | 65% | 1014.5 hPa | 0 mm | 0.45 m/s, 62° | 0 W/m² | - |
| 1777967063 | 16.11° C | 64% | 1014.6 hPa | 0 mm | 0 m/s | 0 W/m² | - |
| 1777967003 | 16.11° C | 64% | 1014.6 hPa | 0 mm | 0 m/s | 0 W/m² | - |
| 1777966943 | 16.11° C | 64% | 1014.4 hPa | 0 mm | 0 m/s | 0 W/m² | - |
| 1777966883 | 15.56° C | 64% | 1014.6 hPa | 0 mm | 0 m/s | 0 W/m² | - |
| 1777966822 | 15.56° C | 64% | 1014.7 hPa | 0 mm | 0 m/s | 0 W/m² | - |
| 1777966762 | 15.56° C | 64% | 1014.6 hPa | 0 mm | 0 m/s | 0 W/m² | - |
| 1777966702 | 16.11° C | 65% | 1014.5 hPa | 0 mm | 0 m/s | 0 W/m² | - |
* Rain latest hour (hover to see other rain measurements)
** Current wind speed in m/s (hover to see current wind gust speed)